STARLINK-34581, 64745

Orbit data source: Space-Track

STARLINK-34581, 64745 is a payload satellite owned by SpaceX/Seattle (US) in LEO that was launched on Wed, 02 Jul 2025 UTC via an FALCON 9 launch vehicle from the Air Force Eastern Test Range (AFETR). Payload-class satellites include a variety of spacecraft equipped with specific instruments for various scientific and technological missions. These include communications satellites like Starlink; space stations such as the ISS; scientific satellites like the Hubble; Earth observation satellites from companies like Planet Labs, Umbra, and HawkEye 360; GPS; miniature CubeSats for education and research; and military/defense satellites.

Loading next visibility...
Identifier
64745, 2025-144X
Orbit
LEO
Last TLE update
13 hours ago
Origin
Manufacturer
SpaceX/Seattle
Mission
Operational spacecraft
Bus & Motor
STARLINK V2MO, Unknown motor
Mass
575 kg wet, ~530 kg dry
Launch date (UTC)
2025-07-02 (1 week ago)
Launch vehicle
FALCON 9
Launch site
Air Force Eastern Test Range (AFETR)
Object type
Payload
Rocket body
Debris
Shape & HBR
Unknown
Radar Cross Section
RCS unknown

Expand to show TLE details & history

TLE from 13 hours ago
0 STARLINK-34581
1 64745U 25144X   25191.66668981 -.01263314  00000-0 -50199-2 0  9998
2 64745  53.1536 231.6896 0000889  72.5520  37.4337 15.88436130  2572
Epoch: 2025-07-10T16:00Z
TLE epoch observation values (Epoch: 2025-07-10T16:00:01.999Z)
Latitude
48.91709°
Longitude
-175.87164°
Altitude
311.744 km
Speed
7.727 km/s
True Right ascension
23h 31m 51s
True Declination
48° 44' 07"
Sunlit
Object was in daylight at epoch
Visualization orbit readout
Latitude
-29.64263°
Longitude
-94.70524°
Altitude
320.229 km
Speed
7.716 km/s
Apparent Right ascension
04h 53m 12s
Apparent Declination
-34° 28' 56"
Sunlit
Object is in daylight
Visualization observer readout
Local Sidereal Time
16:49:15
Azimuth
351.452° N
Elevation
-84.509°
Doppler factor
1
Orbital elements
Apogee altitude
307.525 km
Perigee altitude
306.336 km
Semi-major axis
6,685.068 km
Eccentricity
0.00009
Inclination
53.1536°
RAAN
231.6896°
Arg. of periapsis
72.552°
True anomaly
Unknown
Mean anomaly
37.4337°
Eccentric anomaly
Unknown
Mean motion
3.97086 °/min
Orbital period
90.66 mins
BSTAR
-0.0050199
Loading maneuver chart data...
Loading SW <> Apogee altitude chart data...
Loading historical data...
Loading historical data...
Loading historical data...
Loading historical data...
Loading historical data...
Loading historical data...
Loading historical data...

STARLINK-34581 Visibility forecast

Observer location: undefined°, undefined°

Span
Click to sort rows by Start time (UTC) header in descending order
Start Az.
Max El. time (UTC)
Max El. Az.
Max El.
End time (UTC)
End Az.
4 mins2025-07-11 05:19:20.764Z214.953° SW2025-07-11 05:21:20.764Z107.366° ESE39.902°2025-07-11 05:23:20.764Z57.754° ENE
|